Regional Weather Roundup
Issued by NWS Albany, NY

Current Version | Previous Version | Graphics & Text | Print | Product List | Glossary Off
Versions: 1 2 3 4 5 6 7 8 9 10 11 12 13 14 15 16 17 18 19 20 21 22 23 24 25 26 27 28 29 30 31 32 33 34 35 36 37 38 39 40 41 42 43 44 45 46 47 48 49 50

000
ASUS41 KALY 281610
RWRALY

NEW YORK STATE HOURLY WEATHER ROUNDUP
NATIONAL WEATHER SERVICE ALBANY NY
1100 AM EST FRI NOV 28 2014

NOTE: "FAIR" INDICATES FEW OR NO CLOUDS BELOW 12,000 FEET WITH NO
SIGNIFICANT WEATHER AND/OR NO OBSTRUCTIONS TO VISIBILITY.

NYZ032-033-038>043-046>054-057>066-NYZ062>081-281700-
EAST


CITY           SKY/WX    TMP DP  RH WIND       PRES   REMARKS
ALBANY         MOSUNNY   30  16  56 NW12      30.16S WCI  20
GLENS FALLS    SUNNY     28  19  69 CALM      30.13F
POUGHKEEPSIE   MOSUNNY   32  19  58 W6        30.17S WCI  26
NEWBURGH       MOSUNNY   30  23  74 NW12      30.17R WCI  21
MONTGOMERY     PTSUNNY   33  22  63 NW14      30.15F WCI  23
WHITE PLAINS   MOSUNNY   33  19  56 NW22G30   30.13S WCI  21
ISLIP          MOSUNNY   38  21  50 NW17G29   30.12F WCI  28
NEW YORK CITY  MOSUNNY   36  20  52 NW21G29   30.17F WCI  25
CENTRAL PARK   MOSUNNY   35  18  49 NW8       30.20S WCI  29
$$

NYZ005>009-017-018-044>046-055-056-281700-
CENTRAL


CITY           SKY/WX    TMP DP  RH WIND       PRES   REMARKS
FULTON         LGT SNOW  27  18  69 W13G24    30.19F WCI  16
SYRACUSE       FLURRIES  26  19  74 W17       30.21S WCI  13
ROME           LGT SNOW  26  22  84 W16       30.19F FOG     WCI  14
ELMIRA         PTSUNNY   27  11  51 W14G25    30.22F WCI  16
BINGHAMTON     CLOUDY    23  12  62 NW13G22   30.13F WCI  11
MONTICELLO     PTSUNNY   27  16  63 NW16      30.13F WCI  14
$$

NYZ026>034-041>043-281700-
NORTH


CITY           SKY/WX    TMP DP  RH WIND       PRES   REMARKS
WATERTOWN      LGT SNOW  25  17  72 W8        30.18S VSB 3/4 WCI  16
FORT DRUM      NOT AVBL
MASSENA        CLOUDY    24  12  60 W14       30.16F WCI  12
SARANAC LAKE   LGT SNOW  19  12  74 W10G18    30.02F WCI   7
PLATTSBURGH    PTSUNNY   28  15  58 CALM      30.11F
$$

NYZ001>004-010>016-019>021-281700-
WEST


CITY           SKY/WX    TMP DP  RH WIND       PRES   REMARKS
NIAGARA FALLS  FLURRIES  22  14  71 W15       30.26F WCI   9
BUFFALO        MOSUNNY   24  13  62 W14       30.26F WCI  12
DUNKIRK        FLURRIES  25  14  63 W12G17    30.29F WCI  14
JAMESTOWN      CLOUDY    19  14  79 W7        30.22S WCI  10
WELLSVILLE     CLOUDY    21   7  54 NW20G28   30.16F WCI   6
ROCHESTER      LGT SNOW  25  17  72 W14       30.24F WCI  13
PENN YAN       CLOUDY    26  11  52 W14       30.21F WCI  14
$$

             KEY
       WCI = WIND CHILL INDEX
       VSB = VISIBILITY
       HX  = HEAT INDEX
$$



USA.gov is the U.S. government's official web portal to all federal, state and local government web resources and services.